User: anonymous   Login
Location: Unspecified
(0.0000°N, 0.0000°E)
Time: 23:51:15
(UTC+00:00)
Language:

TBA - TO BE ASSIGNED - Orbit

View from above orbital plane
View from above orbital plane
View from above satellite
View from above satellite

Ground track
Ground track

The orbit is defined by the following mean orbital elements,

1 68969U          26145.58335647 +.00000000 +00000-0 -10486-1 0 00001
2 68969  53.1595 267.8178 0001189  68.4602 158.5598 15.70963452    05
Epoch (UTC): 25 May 2026 14:00:01
Eccentricity: 0.0001189
inclination: 53.1595°
perigee height: 355 km
apogee height: 357 km
right ascension of ascending node: 267.8178°
argument of perigee: 68.4602°
revolutions per day: 15.70963452
mean anomaly at epoch: 158.5598°

The dashed part of the orbit path shows where the satellite is in the earth's shadow,  

DLR